AirNav   Pilot Hours Calculator
 
 650 users online  

WN61 Tai's Landing Airport
Spokane, Washington, USA

GOING TO SPOKANE?


FAA INFORMATION EFFECTIVE 14 JULY 2022

Location

FAA Identifier: WN61
Lat/Long: 47-43-30.6170N 117-16-48.7650W
47-43.510283N 117-16.812750W
47.7251714,-117.2802125
(estimated)
Elevation: 2450 ft. / 747 m (estimated)
Variation: 19E (1985)
From city: 5 miles N of SPOKANE, WA
Time zone: UTC -7 (UTC -8 during Standard Time)
Zip code: 99217

Airport Operations

Airport use: CLOSED INDEFINITELY
Activation date: 12/1985
Control tower: no
ARTCC: SEATTLE CENTER
FSS: SEATTLE FLIGHT SERVICE STATION
Attendance: APR-OCT SAT 0600-0900
Wind indicator: yes
Segmented circle: no

Airport Communications

WX ASOS at SFF (3 nm SW): 120.55 (509-535-3290)
WX ASOS at GEG (12 nm SW): PHONE 509-742-2544
WX ASOS at DEW (16 nm N): 135.175 (509-276-2303)
WX AWOS-3PT at COE (19 nm E): 135.075 (208-772-8215)

Nearby radio navigation aids

VOR radial/distance  VOR name  Freq  Var
GEGr035/17.0SPOKANE VORTAC115.5021E
COEr242/18.8COEUR D'ALENE VOR/DME108.8019E

 
NDB name  Hdg/Dist  Freq  Var  ID
DEER PARK142/15.736516EDPY -.. .--. -.--

Airport Services

Runway Information

Runway 9/27

Dimensions: 900 x 15 ft. / 274 x 5 m
Surface: gravel/dirt, in fair condition
RUNWAY 9  RUNWAY 27
Traffic pattern: leftleft

Airport Ownership and Management from official FAA records

Ownership: Privately-owned
Owner: ALLEN & JODI TAI TAYLOR
N 3507 ELTON RD.
SPOKANE, WA 59212
Phone 509-926-2905
Manager: ALLEN & JODI TAI TAYLOR
N. 3507 ELTON RD.
SPOKANE, WA 99212
Phone 509-926-2905

Airport Operational Statistics

Aircraft based on the field: 1
Single engine airplanes: 1
    

Additional Remarks

FOR CD CTC SPOKANE APCH AT 509-742-2522
(ARPT STATUS) ARPT CLSD INDEFLY.

Instrument Procedures

There are no published instrument procedures at WN61.

Some nearby airports with instrument procedures:

KSFF - Felts Field Airport (3 nm SW)
KGEG - Spokane International Airport (12 nm SW)
KDEW - Deer Park Airport (16 nm N)
KSKA - Fairchild Air Force Base (17 nm SW)
KCOE - Coeur d'Alene Airport - Pappy Boyington Field (19 nm E)
 
Loc | Ops | Rwys | IFR | FBO | Links
Com | Nav | Svcs | Stats | Notes
Area around WN61 (Tai's Landing Airport)
 
Road maps at: MapQuest Bing Google
 
Aerial photo
No photo
 
Sectional chart

 
Airport distance calculator
Flying to Tai's Landing Airport? Find the distance to fly.

From to WN61

Sunrise and sunset
Times for 10-Aug-2022
 Local
(UTC-7)
 Zulu
(UTC)
Morning civil twilight05:0412:04
Sunrise05:3912:39
Sunset20:1003:10
Evening civil twilight20:4503:45

Current date and time
Zulu (UTC)  10-Aug-2022 10:10:07
Local (UTC-7)  10-Aug-2022 03:10:07
 
METAR
KSFF 
3nm SW 
100953Z AUTO 00000KT 10SM OVC110 24/12 A2999 RMK AO2 SLP135 T02390122
KGEG 
12nm SW 
100953Z 18003KT 10SM -RA OVC110 24/12 A3000 RMK AO2 RAB50 SLP136 P0000 T02390122
KDEW 
16nm NW 
100953Z AUTO 00000KT 10SM CLR 21/13 A2999 RMK AO2 SLP137 T02110133
KSKA 
16nm SW 
100358Z 26005KT 10SM BKN140 25/11 A2997 RMK AO2A RAB09E23 SLP133 P0000 T02520114 $
KCOE 
19nm E 
100956Z AUTO 05004KT 10SM BKN120 22/14 A3001 RMK AO2 SLP156 T02220139 PNO $
TAF
KSFF 
3nm SW 
100520Z 1006/1106 VRB03KT P6SM SCT120 BKN150 FM100800 VRB03KT P6SM VCSH SCT080 BKN100 OVC150 FM101500 06003KT P6SM SCT080 BKN120 FM102100 11005KT P6SM SCT060 SCT120 BKN250
KGEG 
12nm SW 
100520Z 1006/1106 23005KT P6SM SCT120 BKN150 FM100800 14005KT P6SM VCSH SCT080 BKN100 OVC150 FM101500 06006KT P6SM SCT080 BKN120 FM102100 11007KT P6SM SCT060 SCT120 BKN250
KSKA 
16nm SW 
100345Z 1003/1109 23012KT 9999 VCSH OVC120 QNH2991INS BECMG 1005/1006 07009KT 9999 VCSH BKN060 QNH2993INS TEMPO 1007/1011 09012G18KT -SHRA BECMG 1013/1014 09008KT 9999 NSW BKN060 QNH2996INS WND 19008KT AFT 1018 BECMG 1021/1022 19007KT 9999 SCT080 QNH2998INS TX33/1021Z TN21/1013Z
KCOE 
19nm E 
100520Z 1006/1106 06005KT P6SM SCT120 BKN150 FM100800 07005KT P6SM VCSH SCT080 BKN100 OVC150 FM101500 04007KT P6SM SCT080 BKN120 FM102100 05006KT P6SM SCT060 SCT120 BKN250
NOTAMs
Click for the latest NOTAMs
NOTAMs are issued by the DoD/FAA and will open in a separate window not controlled by AirNav.

 

 
 

Would you like to see your business listed on this page?

 If your business provides an interesting product or service to pilots, flight crews, aircraft, or users of the Tai's Landing Airport, you should consider listing it here.  To start the listing process, click on the button below
 
Add a business
 

Other Pages about Tai's Landing Airport

Update a link
 
Copyright © AirNav, LLC. All rights reserved. Privacy Policy  Contact